Norton, KS

11:11 AM CST on November 27, 2014 (GMT -0600)
Sarrada Farms 0.1 mi W | Change Station
CLOSE
Current Station
Personal Weather Station
Location: Logan, KS
Elevation: 2021 ft
Nearby Weather Stations

Elev 2021 ft 39.66 °N, 99.58 °W | Updated 1 second ago

Clear
Clear
38.8 °F
Feels Like 31 °F
N
14.1
Wind Variable Wind from SSE
Gusts 17.0 mph

Today
High -- | Low -- °F
--% Chance of Precip.
Yesterday
High -- | Low -- °F
Precip. -- in
7:37 AM 5:16 PM
Waxing Crescent, 31% visible
Pressure 30.39 in
Visibility 10.0 miles
Clouds Clear
Windchill 31 °F
Dew Point 24 °F
Humidity 54%
Rainfall 0.00 in
Snow Depth Not available.
UV 2 out of 12
Pollen .10 out of 12
Air Quality Not available.
Flu Activity Not available.
METAR KHLC 271653Z AUTO 18014G20KT 10SM CLR 04/M07 A3034 RMK AO2 SLP289 T00391067

More Conditions Fewer Conditions

Pressure 30.39 in
Visibility 10.0 miles
Clouds Clear
Windchill 31 °F
Dew Point 24 °F
Humidity 54%
Rainfall 0.00 in
Snow Depth Not available.
UV 2 out of 12
Pollen .10 out of 12
Air Quality Not available.
Flu Activity Not available.
METAR KHLC 271653Z AUTO 18014G20KT 10SM CLR 04/M07 A3034 RMK AO2 SLP289 T00391067

More Conditions Fewer Conditions

10-Day Weather Forecast

Almanac

Astronomy

Nov. 27, 2014 Rise Set
Actual Time
Civil Twilight
Nautical Twilight
Astronomical Twilight
Moon
Length of Visible Light
Length of Day
Tomorrow will be .
, % of the Moon is Illuminated

Today's Extremes

State Highs State Lows

Community

WunderPhotos

Upload Photos

1,774,046 photos uploaded!

WunderBlogs® & News

Nearby

Air Quality

  Air Quality AQ Index Pollutant
Not available.

Snow Depth

Station Depth Elevation

Earthquake Activity

City Distance Mag. Time & Date
Minimum magnitude displayed is 2.5.

Coastal Water Temperatures

Place Temperature

Nearby Weather Stations